[Date Prev][Date Next][Thread Prev][Thread Next] - [Date Index][Thread Index][Author Index]

2 Line ISS Keps 6-26



ISS
1 25544U 98067A   01177.49417824  .00045346  00000-0  49000-3 0  1366
2 25544  51.5706  41.6196 0016420 207.9913 161.0286 15.62986388148538

----
Via the sarex mailing list at AMSAT.ORG courtesy of AMSAT-NA.
To unsubscribe, send "unsubscribe sarex" to Majordomo@amsat.org



AMSAT Top AMSAT Home